This is the latest recevied weather packets stored in our database for station/object KE5AKC. If no packets are shown the sender has not sent any weather packets the latest 1 day(s).
| Time | Temp. | Humidity | Pressure | Rain* | Wind** | Luminosity | Snow |
|---|---|---|---|---|---|---|---|
| 1777980144 | 22.78° C | 84% | 1008.3 hPa | 0 mm | 0.45 m/s, 230° | 0 W/m² | - |
| 1777979843 | 22.78° C | 84% | 1008.3 hPa | 0 mm | 0 m/s | 0 W/m² | - |
| 1777979540 | 22.78° C | 84% | 1008.3 hPa | 0 mm | 2.24 m/s, 154° | 0 W/m² | - |
| 1777979235 | 22.78° C | 84% | 1008.6 hPa | 0 mm | 0.45 m/s, 263° | 0 W/m² | - |
| 1777978933 | 22.78° C | 84% | 1008.3 hPa | 0 mm | 0.45 m/s, 284° | 0 W/m² | - |
| 1777978629 | 22.78° C | 84% | 1008.6 hPa | 0 mm | 0.89 m/s, 181° | 0 W/m² | - |
| 1777978325 | 22.78° C | 84% | 1008.6 hPa | 0 mm | 1.34 m/s, 140° | 0 W/m² | - |
| 1777978022 | 22.78° C | 85% | 1008.6 hPa | 0 mm | 0.89 m/s, 229° | 0 W/m² | - |
| 1777977720 | 22.78° C | 85% | 1008.3 hPa | 0 mm | 0.89 m/s, 260° | 0 W/m² | - |
| 1777977416 | 22.78° C | 85% | 1008.6 hPa | 0 mm | 1.34 m/s, 190° | 0 W/m² | - |
| 1777977114 | 22.78° C | 85% | 1008.6 hPa | 0 mm | 0 m/s | 0 W/m² | - |
| 1777976811 | 22.78° C | 85% | 1008.6 hPa | 0 mm | 0.45 m/s, 176° | 0 W/m² | - |
| 1777976509 | 22.78° C | 85% | 1008.6 hPa | 0 mm | 1.79 m/s, 159° | 0 W/m² | - |
| 1777976207 | 22.78° C | 85% | 1008.6 hPa | 0 mm | 0.45 m/s, 179° | 0 W/m² | - |
| 1777975903 | 22.78° C | 85% | 1009 hPa | 0 mm | 0 m/s | 0 W/m² | - |
| 1777975599 | 22.78° C | 85% | 1009 hPa | 0 mm | 1.34 m/s, 212° | 0 W/m² | - |
| 1777975297 | 22.78° C | 85% | 1009 hPa | 0 mm | 0 m/s | 0 W/m² | - |
| 1777974992 | 22.78° C | 85% | 1008.6 hPa | 0 mm | 0 m/s | 0 W/m² | - |
| 1777974690 | 22.22° C | 85% | 1008.6 hPa | 0 mm | 0.89 m/s, 27° | 0 W/m² | - |
| 1777974386 | 22.22° C | 85% | 1008.6 hPa | 0 mm | 0.45 m/s, 181° | 0 W/m² | - |
| 1777974082 | 22.22° C | 85% | 1008.6 hPa | 0 mm | 0.45 m/s, 140° | 0 W/m² | - |
| 1777973779 | 22.22° C | 86% | 1009 hPa | 0 mm | 0.89 m/s, 171° | 0 W/m² | - |
| 1777973476 | 22.22° C | 86% | 1009 hPa | 0 mm | 0.45 m/s, 237° | 0 W/m² | - |
| 1777973173 | 22.22° C | 86% | 1009 hPa | 0 mm | 1.34 m/s, 225° | 0 W/m² | - |
| 1777972872 | 22.22° C | 86% | 1008.6 hPa | 0 mm | 0.89 m/s, 191° | 0 W/m² | - |
* Rain latest hour (hover to see other rain measurements)
** Current wind speed in m/s (hover to see current wind gust speed)